Weather History for Watford City, ND

Change the Weather History Date:

Sunday, December 8, 2013

  Actual Average (KISN) Record (KISN)
Temperature  
Mean Temperature -14 °F 16 °F  
Max Temperature -4 °F 26 °F 52 °F (1925)
Min Temperature -23 °F 6 °F -31 °F (1927)
Degree Days  
Heating Degree Days 78 49  
Month to date heating degree days 382  
Since 1 July heating degree days 2544  
Cooling Degree Days 0 0  
Month to date cooling degree days 0  
Year to date cooling degree days 456  
Moisture  
Dew Point -19 °F    
Average Humidity 72    
Maximum Humidity 78    
Minimum Humidity 60    
Precipitation  
Precipitation 0.00 in 0.01 in 0.26 in (1966)
Month to date precipitation 0.15  
Year to date precipitation 13.90  
Sea Level Pressure  
Sea Level Pressure 30.01 in    
Wind  
Wind Speed 6 mph (West)    
Max Wind Speed 18 mph    
Max Gust Speed 28 mph    
Visibility 10 miles    
Events Snow    
T = Trace of Precipitation, MM = Missing Value Source: NWS Daily Summary

Daily Weather History Graph

Daily Weather History Graph

Search for Another Location

Airport:

Trip Planner

Search our weather history database for the weather conditions in past years. The results will help you decide how hot, cold, wet, or windy it might be!

Date:

Astronomy

Dec. 08, 2013 Rise Set
Actual Time 8:29 AM CST 5:00 PM CST
Civil Twilight 7:53 AM CST 5:36 PM CST
Nautical Twilight 7:14 AM CST 6:15 PM CST
Astronomical Twilight 6:36 AM CST 6:53 PM CST
Moon 12:30 PM CST (12/8) No Moon Set
Length of Visible Light 9h 43m
Length of Day
8h 31m
Waxing Crescent, 40% of the Moon is Illuminated
Dec 8
Waxing Crescent
Dec 9
First Quarter
Dec 17
Full
Dec 25
Last Quarter
Jan 1
New

Hourly Weather History & Observations

Time (CST) Temp. Windchill Dew Point Humidity Pressure Visibility Wind Dir Wind Speed Gust Speed Precip Events Conditions
12:15 AM -22.0 °F -35.6 °F -27.4 °F 76% 30.17 in 10.0 mi SW 4.6 mph - N/A   Clear
12:35 AM -22.0 °F -37.7 °F -27.4 °F 76% 30.16 in 10.0 mi SW 5.8 mph - N/A   Clear
12:55 AM -22.0 °F -35.6 °F -27.4 °F 76% 30.15 in 10.0 mi SSW 4.6 mph - N/A   Clear
1:15 AM -22.0 °F -35.6 °F -27.4 °F 76% 30.14 in 10.0 mi SSW 4.6 mph - N/A   Clear
1:35 AM -20.2 °F -30.9 °F -27.4 °F 69% 30.13 in 10.0 mi SW 3.5 mph - N/A   Clear
1:55 AM -22.0 °F - -27.4 °F 76% 30.12 in 10.0 mi Calm Calm - N/A   Clear
2:15 AM -22.0 °F -33.0 °F -27.4 °F 76% 30.12 in 10.0 mi SSW 3.5 mph - N/A   Clear
2:35 AM -22.0 °F - -29.2 °F 69% 30.11 in 10.0 mi Calm Calm - N/A   Clear
2:55 AM -22.0 °F - -29.2 °F 69% 30.10 in 10.0 mi Calm Calm - N/A   Clear
3:15 AM -22.0 °F - -29.2 °F 69% 30.09 in 10.0 mi Calm Calm - N/A   Clear
3:35 AM -22.0 °F - -29.2 °F 69% 30.08 in 10.0 mi Calm Calm - N/A   Clear
3:55 AM -22.0 °F - -29.2 °F 69% 30.07 in 10.0 mi Calm Calm - N/A   Clear
4:15 AM -22.0 °F - -29.2 °F 69% 30.06 in 10.0 mi Calm Calm - N/A   Clear
4:35 AM -22.0 °F - -29.2 °F 69% 30.04 in 10.0 mi Calm Calm - N/A   Clear
4:55 AM -22.0 °F - -27.4 °F 76% 30.03 in 10.0 mi Calm Calm - N/A   Clear
5:15 AM -22.0 °F - -29.2 °F 69% 30.03 in 10.0 mi Calm Calm - N/A   Clear
5:35 AM -23.8 °F - -29.2 °F 76% 30.02 in 10.0 mi Calm Calm - N/A   Clear
5:55 AM -23.8 °F - -29.2 °F 76% 30.01 in 10.0 mi Calm Calm - N/A   Clear
6:15 AM -23.8 °F - -29.2 °F 76% 30.00 in 10.0 mi Calm Calm - N/A   Clear
6:35 AM -23.8 °F - -29.2 °F 76% 30.00 in 10.0 mi Calm Calm - N/A   Clear
6:55 AM -23.8 °F - -29.2 °F 76% 29.99 in 10.0 mi Calm Calm - N/A   Clear
7:15 AM -22.0 °F - -29.2 °F 69% 29.99 in 10.0 mi Calm Calm - N/A   Clear
7:35 AM -22.0 °F -33.0 °F -27.4 °F 76% 29.98 in 10.0 mi WSW 3.5 mph - N/A   Clear
7:55 AM -20.2 °F -33.5 °F -25.6 °F 76% 29.98 in 10.0 mi SW 4.6 mph - N/A   Clear
8:15 AM -20.2 °F -33.5 °F -25.6 °F 76% 29.98 in 10.0 mi SW 4.6 mph - N/A   Clear
8:35 AM -20.2 °F -30.9 °F -25.6 °F 76% 29.97 in 10.0 mi South 3.5 mph - N/A   Clear
8:55 AM -16.6 °F -35.7 °F -22.0 °F 76% 29.96 in 10.0 mi SW 9.2 mph - N/A   Clear
9:15 AM -16.6 °F -32.9 °F -22.0 °F 76% 29.96 in 10.0 mi SW 6.9 mph - N/A   Clear
9:35 AM -14.8 °F -24.8 °F -20.2 °F 77% 29.96 in 10.0 mi WSW 3.5 mph - N/A   Clear
9:55 AM -13.0 °F -34.3 °F -18.4 °F 77% 29.96 in 10.0 mi SW 12.7 mph 17.3 mph N/A   Clear
10:15 AM -11.2 °F -30.1 °F -18.4 °F 70% 29.96 in 10.0 mi WSW 10.4 mph - N/A   Clear
10:35 AM -13.0 °F -33.4 °F -18.4 °F 77% 29.96 in 10.0 mi SW 11.5 mph 17.3 mph N/A   Clear
10:55 AM -11.2 °F -31.1 °F -18.4 °F 70% 29.95 in 10.0 mi SW 11.5 mph - N/A   Clear
11:15 AM -9.4 °F -30.6 °F -16.6 °F 71% 29.94 in 10.0 mi SW 13.8 mph - N/A   Clear
11:35 AM -9.4 °F -32.8 °F -16.6 °F 71% 29.94 in 10.0 mi SW 17.3 mph - N/A   Clear
11:55 AM -7.6 °F -28.3 °F -16.6 °F 65% 29.94 in 10.0 mi WSW 13.8 mph 19.6 mph N/A   Clear
12:15 PM -7.6 °F -29.1 °F -16.6 °F 65% 29.93 in 10.0 mi WSW 15.0 mph - N/A   Clear
12:35 PM -7.6 °F -25.7 °F -16.6 °F 65% 29.92 in 10.0 mi WSW 10.4 mph - N/A   Clear
12:55 PM -5.8 °F -24.4 °F -14.8 °F 65% 29.92 in 10.0 mi West 11.5 mph - N/A   Clear
1:15 PM -4.0 °F -23.7 °F -14.8 °F 60% 29.92 in 10.0 mi West 13.8 mph - N/A   Clear
1:35 PM -5.8 °F -28.2 °F -14.8 °F 65% 29.93 in 10.0 mi West 17.3 mph 20.7 mph N/A   Clear
1:55 PM -7.6 °F -29.8 °F -14.8 °F 71% 29.93 in 10.0 mi West 16.1 mph - N/A   Clear
2:15 PM -5.8 °F -27.5 °F -14.8 °F 65% 29.93 in 10.0 mi West 16.1 mph 24.2 mph N/A   Clear
2:35 PM -5.8 °F -26.8 °F -13.0 °F 71% 29.93 in 10.0 mi West 15.0 mph - N/A   Clear
2:55 PM -4.0 °F -22.1 °F -13.0 °F 65% 29.93 in 10.0 mi West 11.5 mph - N/A   Clear
3:15 PM -4.0 °F -23.7 °F -13.0 °F 65% 29.93 in 9.0 mi West 13.8 mph - N/A Snow Light Snow
3:35 PM -4.0 °F -20.2 °F -13.0 °F 65% 29.94 in 10.0 mi West 9.2 mph - N/A   Mostly Cloudy
3:55 PM -4.0 °F -21.2 °F -13.0 °F 65% 29.94 in 10.0 mi West 10.4 mph - N/A   Mostly Cloudy
4:15 PM -4.0 °F -22.1 °F -11.2 °F 71% 29.95 in 5.0 mi West 11.5 mph 19.6 mph N/A Snow Light Snow
4:35 PM -4.0 °F -21.2 °F -11.2 °F 71% 29.95 in 10.0 mi West 10.4 mph - N/A Snow Light Snow
4:55 PM -4.0 °F -20.2 °F -11.2 °F 71% 29.95 in 7.0 mi West 9.2 mph - N/A   Mostly Cloudy
5:15 PM -4.0 °F -20.2 °F -11.2 °F 71% 29.96 in 10.0 mi WSW 9.2 mph - N/A   Mostly Cloudy
5:35 PM -4.0 °F -20.2 °F -11.2 °F 71% 29.97 in 10.0 mi West 9.2 mph - N/A   Scattered Clouds
5:55 PM -4.0 °F -21.2 °F -9.4 °F 78% 29.98 in 5.0 mi West 10.4 mph - N/A Snow Light Snow
6:15 PM -4.0 °F -20.2 °F -9.4 °F 78% 29.99 in 10.0 mi WNW 9.2 mph - N/A   Overcast
6:35 PM -4.0 °F -22.1 °F -11.2 °F 71% 29.99 in 10.0 mi NW 11.5 mph 16.1 mph N/A   Mostly Cloudy
6:55 PM -4.0 °F -25.2 °F -11.2 °F 71% 30.01 in 10.0 mi NW 16.1 mph 21.9 mph N/A   Mostly Cloudy
7:15 PM -4.0 °F -23.7 °F -11.2 °F 71% 30.02 in 10.0 mi NW 13.8 mph 19.6 mph N/A   Overcast
7:35 PM -4.0 °F -23.7 °F -11.2 °F 71% 30.02 in 10.0 mi NW 13.8 mph 23.0 mph N/A   Overcast
7:55 PM -4.0 °F -23.7 °F -11.2 °F 71% 30.03 in 10.0 mi NW 13.8 mph 19.6 mph N/A   Mostly Cloudy
8:15 PM -4.0 °F -22.1 °F -13.0 °F 65% 30.04 in 10.0 mi WNW 11.5 mph - N/A   Scattered Clouds
8:35 PM -5.8 °F -23.4 °F -13.0 °F 71% 30.05 in 10.0 mi WNW 10.4 mph - N/A   Mostly Cloudy
8:55 PM -5.8 °F -21.2 °F - N/A% 30.05 in 3.0 mi West 8.1 mph - N/A Snow Light Snow
9:15 PM -5.8 °F -25.2 °F -13.0 °F 71% 30.05 in 10.0 mi WNW 12.7 mph 17.3 mph N/A   Mostly Cloudy
9:35 PM -7.6 °F -23.4 °F -13.0 °F 77% 30.05 in 10.0 mi West 8.1 mph - N/A   Clear
9:55 PM -7.6 °F -20.6 °F -13.0 °F 77% 30.05 in 6.0 mi West 5.8 mph - N/A Snow Light Snow
10:15 PM -7.6 °F -26.6 °F -13.0 °F 77% 30.05 in 9.0 mi West 11.5 mph - N/A   Scattered Clouds
10:35 PM -7.6 °F -30.5 °F -13.0 °F 77% 30.05 in 10.0 mi WNW 17.3 mph - N/A   Clear
10:55 PM -7.6 °F -28.3 °F -14.8 °F 71% 30.05 in 10.0 mi West 13.8 mph - N/A   Clear
11:15 PM -7.6 °F -27.5 °F -14.8 °F 71% 30.05 in 10.0 mi West 12.7 mph 19.6 mph N/A   Clear
11:35 PM -7.6 °F -29.1 °F -14.8 °F 71% 30.05 in 10.0 mi West 15.0 mph 23.0 mph N/A   Clear
11:55 PM -7.6 °F -31.1 °F -13.0 °F 77% 30.04 in 10.0 mi West 18.4 mph 27.6 mph N/A   Clear